This is the latest recevied weather packets stored in our database for station/object EA5LU-10. If no packets are shown the sender has not sent any weather packets the latest 10 day(s).
| Time | Temp. | Humidity | Pressure | Rain* | Wind** | Luminosity | Snow |
|---|---|---|---|---|---|---|---|
| 1777610981 | 19.44° C | 84% | 1009.2 hPa | - | - | - | - |
| 1777610080 | 18.89° C | 84% | 1009.1 hPa | - | - | - | - |
| 1777609179 | 19.44° C | 84% | 1009.1 hPa | - | - | - | - |
| 1777608278 | 19.44° C | 85% | 1009 hPa | - | - | - | - |
| 1777607376 | 20° C | 84% | 1008.9 hPa | - | - | - | - |
| 1777606476 | 20° C | 84% | 1008.9 hPa | - | - | - | - |
| 1777605575 | 20° C | 83% | 1009 hPa | - | - | - | - |
| 1777604674 | 20° C | 83% | 1009.1 hPa | - | - | - | - |
| 1777603773 | 20° C | 83% | 1009 hPa | - | - | - | - |
| 1777602872 | 20° C | 83% | 1009 hPa | - | - | - | - |
| 1777601971 | 20° C | 81% | 1008.9 hPa | - | - | - | - |
| 1777601071 | 20.56° C | 80% | 1008.8 hPa | - | - | - | - |
| 1777600170 | 20.56° C | 80% | 1008.9 hPa | - | - | - | - |
| 1777599269 | 20.56° C | 79% | 1008.7 hPa | - | - | - | - |
| 1777598368 | 20.56° C | 74% | 1008.6 hPa | - | - | - | - |
| 1777597468 | 20.56° C | 72% | 1008.7 hPa | - | - | - | - |
| 1777596567 | 20.56° C | 73% | 1008.7 hPa | - | - | - | - |
| 1777595666 | 20.56° C | 72% | 1008.5 hPa | - | - | - | - |
| 1777594764 | 20° C | 74% | 1008.2 hPa | - | - | - | - |
| 1777593864 | 20° C | 74% | 1008.3 hPa | - | - | - | - |
| 1777592963 | 20° C | 76% | 1008.4 hPa | - | - | - | - |
| 1777592062 | 20° C | 75% | 1008.2 hPa | - | - | - | - |
| 1777591161 | 20.56° C | 74% | 1008.4 hPa | - | - | - | - |
| 1777590260 | 20.56° C | 73% | 1008.6 hPa | - | - | - | - |
| 1777589360 | 20.56° C | 73% | 1008.5 hPa | - | - | - | - |
* Rain since midnight (hover to see other rain measurements)
** Current wind speed in m/s (hover to see current wind gust speed)